(88) Thisbe
ephemeris date magn radius delta ra dec elong phase
Today7 Jul 202513.33.221 AU4.177 AU08h15m+17°39'17.4°5.4°
Opposition6 Mar 202611.63.127 AU2.140 AU10h57m-01°07'172.8°2.3°
(88) Thisbe - 2025-07-07
astro.vanbuitenen.nl


 
-1 year
-1 month
-1 day
Now
+1 day
+1 month
+1 year

The interactive orbit chart above shows the body's path through the solar system and its position at the given date. Green and blue lines are shown perpendicular to the ecliptic plane: Green if the path is above the ecliptic plane, blue if it is below. (Left-click and drag to rotate the view; Right-click and drag to move the view; Use scroll wheel to zoom in our out.)

The orbital elements of Thisbe are:

            e (Eccentricity)                : 0.1645371
            a (Semimajor axis)              : 2.7687422
            i (Inclination)                 : 5.22640
            Ω (Longitude of ascending node) : 276.32535
            ω (Argument of perihelion)      : 36.93816
            M (Mean anomaly)                : 158.72262
            Epoch                           : 2025 May 05

            L (Longitude of perihelion)     : 313.14892
            B (Latitude of perihelion)      : 3.13803
            P (Orbital period in years)     : 4.61            
        

The light curve chart below shows the estimated development of the minor planet's magnitude.


The all-sky chart below shows the path of the minor planet over the same period as the light curve. The current position is marked yellow.





The following chart shows the path of the minor planet in the next few days. The field of view is optimized for (~10x50) binoculars and finderscopes. A more printer-friendly version of the same chart can be found below.




Ephemerides:
Date       Time       RA (2000)    DEC (2000)    delta   radius  elong  phase   PA    magn
2025-07-07 00:00 UT   08 15 26.1   +17 39 26     4.177    3.221   17.4    5.4   109   13.3 
2025-07-07 02:57 UT   08 15 36.3   +17 38 49     4.177    3.221   17.3    5.4   110   13.3 
2025-07-08 00:00 UT   08 16 49.5   +17 34 26     4.181    3.221   16.8    5.2   110   13.3 
2025-07-09 00:00 UT   08 18 12.8   +17 29 24     4.185    3.222   16.2    5.0   110   13.3 
2025-07-10 00:00 UT   08 19 36.2   +17 24 19     4.189    3.222   15.6    4.9   111   13.3 
2025-07-11 00:00 UT   08 20 59.6   +17 19 11     4.193    3.222   15.0    4.7   111   13.3 
2025-07-12 00:00 UT   08 22 23.0   +17 14 00     4.197    3.222   14.4    4.5   112   13.3 
2025-07-13 00:00 UT   08 23 46.4   +17 08 46     4.200    3.222   13.8    4.3   112   13.3 
2025-07-14 00:00 UT   08 25 09.8   +17 03 30     4.204    3.222   13.2    4.1   113   13.3 
2025-07-15 00:00 UT   08 26 33.2   +16 58 10     4.207    3.222   12.6    3.9   113   13.3 
2025-07-16 00:00 UT   08 27 56.6   +16 52 48     4.210    3.223   12.0    3.8   114   13.3 
2025-07-17 00:00 UT   08 29 19.9   +16 47 23     4.213    3.223   11.4    3.6   115   13.3 
2025-07-18 00:00 UT   08 30 43.3   +16 41 55     4.215    3.223   10.8    3.4   116   13.2 
2025-07-19 00:00 UT   08 32 06.6   +16 36 24     4.218    3.223   10.2    3.2   116   13.2 
2025-07-20 00:00 UT   08 33 29.9   +16 30 51     4.220    3.223    9.6    3.0   117   13.2 
2025-07-21 00:00 UT   08 34 53.2   +16 25 14     4.223    3.223    9.0    2.8   118   13.2 
2025-07-22 00:00 UT   08 36 16.4   +16 19 35     4.225    3.223    8.4    2.6   120   13.2 
2025-07-23 00:00 UT   08 37 39.6   +16 13 54     4.227    3.223    7.8    2.5   121   13.2 
2025-07-24 00:00 UT   08 39 02.8   +16 08 09     4.229    3.223    7.3    2.3   122   13.2 
2025-07-25 00:00 UT   08 40 25.9   +16 02 22     4.230    3.224    6.7    2.1   124   13.2 
2025-07-26 00:00 UT   08 41 49.0   +15 56 32     4.232    3.224    6.1    1.9   126   13.2 
2025-07-27 00:00 UT   08 43 12.0   +15 50 40     4.233    3.224    5.6    1.8   129   13.1 
2025-07-28 00:00 UT   08 44 35.0   +15 44 45     4.234    3.224    5.0    1.6   132   13.1 
2025-07-29 00:00 UT   08 45 57.9   +15 38 48     4.235    3.224    4.5    1.4   135   13.1 
2025-07-30 00:00 UT   08 47 20.7   +15 32 48     4.236    3.224    4.0    1.3   140   13.1 
2025-07-31 00:00 UT   08 48 43.4   +15 26 45     4.237    3.224    3.5    1.1   146   13.1 


    Terminology:
            
    delta:  distance between minor planet and earth in AU
    radius: distance between minor planet and sun in AU
    magn:   magnitude (brightness) estimate    
    ra:     right ascension in hours (24h = 360deg)
    dec:    declination in degrees
    elong:  elongation in degrees (angle sun-earth-minor planet)    
    phase:  phase angle in degrees (angle sun-minor planet-earth)        
    AU:     Astronomical Unit (mean distance between earth and sun: 149597870.7 km
    

Orbital elements provided by the MPC (Minor Planet Center).
Calculations by a modified version of AAPlus, a C# implementation of the AA+ project by PJ Naughter from the algorithms presented in the book "Astronomical Algorithms" by Jean Meeus.
NGC2000 dso catalog and star labels from VizieR as provided by the Strasbourg astronomical Data Center.
Tycho2 catalog from the ESO archive.